Home   Weather   Santa Barbara   Past weeks

Flag for USA Past Weather in Santa Barbara, California, USA — Yesterday and Last 2 Weeks

Now
58 °F

Clear.


Feels Like: 55 °F
Forecast: 60 / 78 °F
Wind: 12 mph from Northwest

Location: Santa Barbara Municipal Airport

Current Time: Apr 27, 2017 at 4:13:10 am

Latest Report: Apr 27, 2017 at 2:53 am


Visibility: 10 mi

Pressure: 29.83 "Hg

Humidity: 87%

Dew Point: 54 °F

Location of Santa BarbaraLocation

Past Weather in Santa Barbara — Graph

°F

Santa Barbara Temperature Yesterday

Maximum temperature yesterday: 80 °F (at 3:53 pm)
Minimum temperature yesterday: 57 °F (at 1:53 am)
Average temperature yesterday: 68 °F

High & Low Weather Summary for the Past Weeks

 TemperatureHumidityPressure
High84 °F (Apr 21, 3:53 pm)100% (Apr 12, 8:53 pm)30.15 "Hg (Apr 12, 8:53 pm)
Low44 °F (Apr 15, 6:53 am)16% (Apr 21, 2:53 pm)29.78 "Hg (Apr 23, 4:53 pm)
Average62 °F71%29.97 "Hg
* Reported Apr 12 2:53 am — Apr 27 2:53 am, Santa Barbara, Weather by CustomWeather, © 2017

Note: Actual official high and low records may vary slightly from our data, if they occured in-between our weather recording intervals... More about our weather records

Advertising

Santa Barbara Weather History for the Previous 24 Hours

Scroll right to see more
 ConditionsComfort  
Time TempWeatherWind HumidityBarometerVisibility
2:53 am
Thu, Apr 27
58 °FClear.12 mph87%29.83 "Hg10 mi
1:53 am59 °FClear.13 mph84%29.84 "Hg10 mi
12:53 am59 °FClear.7 mph84%29.85 "Hg10 mi
11:53 pm
Wed, Apr 26
60 °FClear.6 mph83%29.85 "Hg10 mi
10:53 pm62 °FClear.No wind78%29.86 "Hg10 mi
9:53 pm64 °FClear.5 mph75%29.87 "Hg10 mi
8:53 pm64 °FClear.7 mph75%29.86 "Hg10 mi
7:53 pm69 °FClear.5 mph66%29.84 "Hg10 mi
6:53 pm73 °FSunny.13 mph57%29.81 "Hg10 mi
5:53 pm78 °FSunny.22 mph48%29.80 "Hg10 mi
4:53 pm80 °FSunny.22 mph45%29.81 "Hg10 mi
3:53 pm80 °FPassing clouds.24 mph45%29.82 "Hg10 mi
2:53 pm76 °FPassing clouds.14 mph50%29.83 "Hg10 mi
1:53 pm69 °FPassing clouds.21 mph59%29.85 "Hg10 mi
12:53 pm74 °FSunny.16 mph48%29.86 "Hg10 mi
11:53 am73 °FSunny.16 mph48%29.90 "Hg10 mi
10:53 am74 °FSunny.13 mph45%29.91 "Hg10 mi
9:53 am72 °FSunny.14 mph44%29.92 "Hg10 mi
9:34 am72 °FSunny.17 mph44%29.92 "Hg10 mi
8:53 am73 °FSunny.10 mph41%29.90 "Hg10 mi
7:53 am62 °FSunny.5 mph65%29.91 "Hg10 mi
6:53 am58 °FScattered clouds.3 mph70%29.90 "Hg10 mi
5:53 am59 °FPassing clouds.3 mph64%29.87 "Hg10 mi
4:53 am63 °FClear.5 mph52%29.88 "Hg10 mi
Weather by CustomWeather, © 2017

See weather overviewHow to use our weather pages